Alpine (355, 357, 358, 1458) Station Data

Red Flag Warning: No
Fire Weather Zone: 250
SDGE Region: Eastern
Lat/Lon: 32.827/-116.773

Observations

Time Wind Speed/Gust Temp(F) RH Fuel Moist Fuel Temp(F) Dewpt(F) Tmax(F) Tmin(F) Accum Precip 10-min Precip SL Press(mb)
4/26 2:50am 0 0 G 0 49° 79% - - 43° 52.6° 48.6° - - -
4/26 2:40am 93 1 G 2 49° 79% - - 43° 52.6° 48.6° - - -
4/26 2:30am 51 0 G 2 49° 77% - - 42° 52.6° 48.7° - - -
4/26 2:20am 134 1 G 2 50° 78% - - 44° 52.6° 49.5° - - -
4/26 2:10am 261 1 G 2 50° 78% - - 43° 52.6° 49.5° - - -
4/26 2:00am 151 1 G 3 50° 78% - - 44° 52.6° 49.5° - - -
4/26 1:50am 55 0 G 2 50° 77% - - 43° 52.6° 49.5° - - -
4/26 1:40am 119 1 G 4 51° 76% - - 44° 52.6° 50.3° - - -
4/26 1:30am 168 1 G 2 51° 77% - - 44° 52.6° 50.4° - - -
4/26 1:20am 74 0 G 2 51° 77% - - 44° 52.6° 50.4° - - -
4/26 1:10am 331 0 G 1 51° 76% - - 44° 52.6° 50.4° - - -
4/26 1:00am 74 1 G 2 51° 76% - - 44° 52.6° 50.6° - - -
4/26 12:50am 340 0 G 1 51° 75% - - 43° 52.6° 50.8° - - -
4/26 12:40am 126 1 G 4 52° 74% - - 44° 52.6° 51.3° - - -
4/26 12:30am 130 1 G 2 52° 75% - - 44° 52.6° 51.3° - - -
4/26 12:20am 101 1 G 2 52° 74% - - 44° 52.6° 51.5° - - -
4/26 12:10am 117 0 G 1 52° 73% - - 44° 52.6° 52.1° - - -
4/26 12:00am 245 0 G 1 53° 72% - - 44° 64.5° 51.9° - - -
4/25 11:50pm 110 2 G 5 53° 73% - - 44° 64.5° 51.9° - - -
4/25 11:40pm 85 2 G 5 52° 73% - - 44° 64.5° 51.9° - - -
4/25 11:30pm 114 2 G 5 52° 73% - - 44° 64.5° 51.9° - - -
4/25 11:20pm 114 2 G 4 52° 72% - - 44° 64.5° 52.1° - - -
4/25 11:10pm 110 2 G 4 53° 71% - - 44° 64.5° 52.1° - - -
4/25 11:00pm 113 3 G 6 53° 71% - - 44° 64.5° 52.1° - - -
4/25 10:50pm 111 4 G 6 53° 71% - - 44° 64.5° 52.1° - - -
4/25 10:40pm 115 3 G 5 53° 70% - - 44° 64.5° 52.1° - - -
4/25 10:30pm 114 2 G 4 53° 70% - - 44° 64.5° 52.1° - - -
4/25 10:20pm 121 2 G 4 53° 70% - - 44° 64.5° 52.1° - - -
4/25 10:10pm 145 2 G 4 53° 70% - - 44° 64.5° 52.1° - - -
4/25 10:00pm 163 1 G 2 53° 70% - - 43° 64.5° 52.1° - - -
4/25 9:50pm 0 0 G 0 53° 69% - - 43° 64.5° 52.1° - - -
4/25 9:40pm 112 0 G 1 54° 68% - - 43° 64.5° 52.1° - - -
4/25 9:30pm 159 0 G 1 54° 68% - - 43° 64.5° 52.1° - - -
4/25 9:20pm 142 0 G 1 54° 67% - - 43° 64.5° 52.1° - - -
4/25 9:10pm 61 0 G 2 54° 66% - - 43° 64.5° 52.1° - - -
4/25 9:00pm 0 0 G 0 55° 65% - - 43° 64.5° 52.1° - - -
4/25 8:50pm 160 0 G 1 55° 65% - - 43° 64.5° 52.1° - - -
4/25 8:40pm 155 1 G 1 55° 65% - - 44° 64.5° 52.1° - - -
4/25 8:30pm 74 0 G 1 56° 64% - - 43° 64.5° 52.1° - - -
4/25 8:20pm 296 0 G 2 56° 63% - - 44° 64.5° 52.1° - - -
4/25 8:10pm 274 1 G 2 56° 62% - - 44° 64.5° 52.1° - - -
4/25 8:00pm 240 1 G 2 57° 62% - - 44° 64.5° 52.1° - - -
4/25 7:50pm 263 1 G 4 57° 61% - - 44° 64.5° 52.1° - - -
4/25 7:40pm 278 2 G 5 57° 60% - - 44° 64.5° 52.1° - - -
4/25 7:30pm 271 2 G 5 58° 60% - - 44° 64.5° 52.1° - - -
4/25 7:20pm 271 3 G 6 58° 59% - - 44° 64.5° 52.1° - - -
4/25 7:10pm 273 3 G 6 58° 59% - - 44° 64.5° 52.1° - - -
4/25 7:00pm 270 3 G 6 59° 59% - - 44° 64.5° 52.1° - - -
4/25 6:50pm 280 3 G 7 59° 59% - - 45° 64.5° 52.1° - - -
4/25 6:40pm 278 4 G 7 59° 59% - - 45° 64.5° 52.1° - - -
4/25 6:30pm 274 4 G 9 60° 59% - - 45° 64.5° 52.1° - - -
4/25 6:20pm 271 4 G 10 60° 59% - - 45° 64.5° 52.1° - - -
4/25 6:10pm 276 5 G 8 60° 59% - - 46° 64.5° 52.1° - - -
4/25 6:00pm 280 5 G 11 60° 59% - - 46° 64.5° 52.1° - - -
4/25 5:50pm 261 5 G 11 61° 61% - - 47° 64.5° 52.1° - - -
4/25 5:40pm 277 4 G 10 61° 63% - - 48° 64.5° 52.1° - - -
4/25 5:30pm 263 5 G 10 61° 62% - - 48° 64.5° 52.1° - - -
4/25 5:20pm 228 4 G 8 62° 62% - - 48° 64.5° 52.1° - - -
4/25 5:10pm 265 4 G 10 61° 62% - - 48° 64.5° 52.1° - - -
4/25 5:00pm 260 3 G 8 62° 59% - - 48° 64.5° 52.1° - - -
4/25 4:50pm 257 4 G 10 62° 60% - - 48° 64.5° 52.1° - - -
4/25 4:40pm 259 4 G 9 63° 59% - - 48° 64.5° 52.1° - - -
4/25 4:30pm 264 3 G 8 62° 60% - - 48° 64.5° 52.1° - - -
4/25 4:20pm 258 5 G 12 62° 60% - - 47° 64.5° 52.1° - - -
4/25 4:10pm 269 6 G 10 62° 59% - - 47° 64.5° 52.1° - - -
4/25 4:00pm 278 5 G 10 63° 57% - - 47° 64.5° 52.1° - - -
4/25 3:50pm 293 5 G 9 62° 59% - - 48° 64.5° 52.1° - - -
4/25 3:40pm 276 5 G 10 62° 60% - - 48° 64.5° 52.1° - - -
4/25 3:30pm 273 4 G 10 62° 59% - - 48° 64.5° 52.1° - - -
4/25 3:20pm 259 3 G 8 62° 60% - - 48° 64.5° 52.1° - - -
4/25 3:10pm 258 5 G 10 62° 60% - - 48° 64.5° 52.1° - - -
4/25 3:00pm 264 4 G 10 63° 59% - - 48° 64.5° 52.1° - - -
4/25 2:50pm 262 4 G 13 63° 59% - - 48° 64.5° 52.1° - - -
4/25 2:40pm 259 3 G 9 63° 56% - - 48° 64.5° 52.1° - - -
4/25 2:30pm 277 5 G 9 63° 55% - - 47° 64.5° 52.1° - - -
4/25 2:20pm 268 6 G 13 63° 54% - - 47° 64.5° 52.1° - - -
4/25 2:10pm 266 5 G 12 63° 55% - - 47° 64.3° 52.1° - - -
4/25 2:00pm 265 6 G 12 64° 54% - - 47° 64.3° 52.1° - - -
4/25 1:50pm 282 6 G 10 63° 54% - - 47° 64.2° 52.1° - - -
4/25 1:40pm 276 6 G 11 63° 55% - - 47° 64.2° 52.1° - - -
4/25 1:30pm 282 5 G 10 63° 55% - - 47° 64.2° 52.1° - - -
4/25 1:20pm 235 4 G 10 63° 58% - - 48° 64.2° 52.1° - - -
4/25 1:10pm 272 5 G 11 63° 56% - - 47° 64.2° 52.1° - - -
4/25 1:00pm 283 5 G 10 63° 52% - - 46° 64.2° 52.1° - - -
4/25 12:50pm 276 4 G 10 64° 51% - - 45° 64.2° 52.1° - - -
4/25 12:40pm 275 5 G 12 63° 54% - - 46° 63.7° 52.1° - - -
4/25 12:30pm 299 5 G 10 62° 53% - - 45° 63.7° 52.1° - - -
4/25 12:20pm 277 4 G 10 63° 53% - - 45° 63.7° 52.1° - - -
4/25 12:10pm 274 5 G 10 63° 51% - - 45° 63.7° 52.1° - - -
4/25 12:00pm 272 5 G 12 63° 52% - - 45° 63.7° 52.1° - - -
4/25 11:50am 306 3 G 7 63° 52% - - 45° 63.7° 52.1° - - -
4/25 11:40am 319 4 G 11 63° 50% - - 44° 63.7° 52.1° - - -
4/25 11:30am 272 5 G 12 62° 53% - - 45° 62.9° 52.1° - - -
4/25 11:20am 285 5 G 9 62° 55% - - 46° 62.7° 52.1° - - -
4/25 11:10am 300 4 G 9 61° 58% - - 47° 62.2° 52.1° - - -
4/25 11:00am 262 4 G 12 61° 58% - - 46° 61.3° 52.1° - - -
4/25 10:50am 249 3 G 8 60° 59% - - 46° 60.9° 52.1° - - -
4/25 10:40am 270 4 G 8 60° 61% - - 46° 60.5° 52.1° - - -
4/25 10:30am 255 4 G 9 59° 63% - - 47° 59.9° 52.1° - - -
4/25 10:20am 262 3 G 9 59° 64% - - 47° 59.4° 52.1° - - -
4/25 10:10am 243 3 G 7 59° 65% - - 47° 59.4° 52.1° - - -
4/25 10:00am 209 3 G 6 58° 69% - - 48° 59.1° 52.1° - - -
4/25 9:50am 220 3 G 7 57° 72% - - 48° 58.2° 52.1° - - -
4/25 9:40am 267 4 G 7 58° 68% - - 47° 58.2° 52.1° - - -
4/25 9:30am 262 2 G 7 57° 67% - - 47° 58.2° 52.1° - - -
4/25 9:20am 267 2 G 6 57° 70% - - 47° 57.6° 52.1° - - -
4/25 9:10am 211 2 G 7 57° 71% - - 48° 57.3° 52.1° - - -
4/25 9:00am 257 2 G 8 56° 73% - - 48° 57.3° 52.1° - - -
4/25 8:50am 234 3 G 6 57° 72% - - 48° 57.3° 52.1° - - -
4/25 8:40am 211 2 G 6 56° 75% - - 49° 57° 52.1° - - -
4/25 8:30am 271 2 G 6 55° 78% - - 48° 55.7° 52.1° - - -
4/25 8:20am 251 2 G 7 55° 78% - - 48° 55.6° 52.1° - - -
4/25 8:10am 173 2 G 4 55° 78% - - 48° 55.5° 52.1° - - -
4/25 8:00am 256 1 G 3 55° 79% - - 49° 55.5° 52.1° - - -
4/25 7:50am 199 0 G 2 55° 81% - - 49° 55.5° 52.1° - - -
4/25 7:40am 136 1 G 3 55° 82% - - 49° 55° 52.1° - - -
4/25 7:30am 164 1 G 2 54° 83% - - 49° 54.7° 52.1° - - -
4/25 7:20am 173 0 G 2 54° 84% - - 49° 54.4° 52.1° - - -
4/25 7:10am 175 1 G 3 54° 84% - - 49° 54.3° 52.1° - - -
4/25 7:00am 227 1 G 3 53° 84% - - 49° 54.3° 52.1° - - -
4/25 6:50am 194 0 G 2 53° 84% - - 49° 54.3° 52.1° - - -
4/25 6:40am 268 1 G 3 53° 83% - - 48° 54.3° 52.1° - - -
4/25 6:30am 269 2 G 4 54° 82% - - 48° 54.3° 52.1° - - -
4/25 6:20am 268 2 G 3 54° 82% - - 48° 54.3° 52.1° - - -
4/25 6:10am 201 1 G 2 54° 82% - - 48° 54.3° 52.1° - - -
4/25 6:00am 262 1 G 2 54° 82% - - 48° 54.3° 52.1° - - -
4/25 5:50am 174 2 G 4 54° 82% - - 48° 54.3° 52.1° - - -
4/25 5:40am 163 1 G 2 53° 82% - - 48° 54.3° 52.1° - - -
4/25 5:30am 140 1 G 4 53° 82% - - 48° 54.3° 52.1° - - -
4/25 5:20am 109 2 G 3 53° 83% - - 48° 54.3° 52.1° - - -
4/25 5:10am 116 1 G 2 52° 83% - - 48° 54.3° 52.1° - - -
4/25 5:00am 89 2 G 3 52° 83% - - 47° 54.3° 52.1° - - -
4/25 4:50am 63 1 G 2 53° 83% - - 48° 54.3° 52.1° - - -
4/25 4:40am 111 1 G 3 53° 84% - - 48° 54.3° 52.1° - - -
4/25 4:30am 94 1 G 3 52° 84% - - 48° 54.3° 52.1° - - -
4/25 4:20am 77 2 G 3 52° 84% - - 48° 54.3° 52.1° - - -
4/25 4:10am 74 1 G 2 53° 83% - - 48° 54.3° 52.3° - - -
4/25 4:00am 91 1 G 2 53° 83% - - 48° 54.3° 52.6° - - -
4/25 3:50am 147 1 G 4 53° 83% - - 48° 54.3° 52.8° - - -
4/25 3:40am 168 2 G 5 53° 83% - - 48° 54.3° 53° - - -
4/25 3:30am 180 2 G 7 53° 84% - - 49° 54.3° 53° - - -
4/25 3:20am 179 2 G 6 53° 85% - - 49° 54.3° 53° - - -
4/25 3:10am 183 4 G 9 53° 85% - - 49° 54.3° 53° - - -
4/25 3:00am 205 3 G 8 53° 85% - - 49° 54.3° 53° - - -
4/25 2:50am 192 3 G 7 54° 84% - - 49° 54.3° 53° - - -
4/25 2:40am 199 2 G 6 54° 82% - - 48° 54.3° 53° - - -
4/25 2:30am 239 2 G 6 54° 81% - - 48° 54.3° 53° - - -
4/25 2:20am 220 1 G 3 54° 79% - - 48° 54.3° 53° - - -
4/25 2:10am 198 2 G 4 54° 79% - - 48° 54.3° 53° - - -
4/25 2:00am 195 3 G 5 54° 79% - - 48° 54.3° 53° - - -
4/25 1:50am 187 2 G 5 54° 78% - - 47° 54.3° 53° - - -
4/25 1:40am 187 1 G 4 54° 79% - - 48° 54.3° 53° - - -
4/25 1:30am 164 1 G 3 54° 80% - - 48° 54.2° 53° - - -
4/25 1:20am 170 1 G 3 54° 80% - - 48° 53.9° 53° - - -
4/25 1:10am 181 2 G 5 54° 80% - - 48° 53.9° 53° - - -
4/25 1:00am 191 2 G 6 54° 80% - - 48° 53.9° 53° - - -
4/25 12:50am 160 2 G 8 54° 79% - - 48° 53.9° 53° - - -
4/25 12:40am 195 2 G 7 54° 81% - - 48° 53.9° 53° - - -
4/25 12:30am 185 2 G 6 53° 84% - - 49° 53.9° 53° - - -
4/25 12:20am 213 3 G 8 53° 86% - - 49° 53.9° 53° - - -
4/25 12:10am 188 5 G 8 53° 84% - - 49° 53.9° 53.2° - - -
4/25 12:00am 185 3 G 7 54° 81% - - 48° 67.1° 49.6° - - -
4/24 11:50pm 220 1 G 5 54° 80% - - 48° 67.1° 49.6° - - -
4/24 11:40pm 266 2 G 4 54° 81% - - 48° 67.1° 49.6° - - -
4/24 11:30pm 256 2 G 4 54° 81% - - 48° 67.1° 49.6° - - -
4/24 11:20pm 273 3 G 6 54° 82% - - 48° 67.1° 49.6° - - -
4/24 11:10pm 227 2 G 5 54° 84% - - 49° 67.1° 49.6° - - -
4/24 11:00pm 252 2 G 4 54° 85% - - 49° 67.1° 49.6° - - -
4/24 10:50pm 231 2 G 5 54° 86% - - 50° 67.1° 49.6° - - -
4/24 10:40pm 249 2 G 4 54° 87% - - 50° 67.1° 49.6° - - -
4/24 10:30pm 192 2 G 5 54° 87% - - 50° 67.1° 49.6° - - -
4/24 10:20pm 189 3 G 6 54° 87% - - 50° 67.1° 49.6° - - -
4/24 10:10pm 213 2 G 5 54° 86% - - 50° 67.1° 49.6° - - -
4/24 10:00pm 252 2 G 3 54° 86% - - 50° 67.1° 49.6° - - -
4/24 9:50pm 215 2 G 4 54° 86% - - 50° 67.1° 49.6° - - -
4/24 9:40pm 196 1 G 3 54° 86% - - 50° 67.1° 49.6° - - -
4/24 9:30pm 195 3 G 4 54° 86% - - 50° 67.1° 49.6° - - -
4/24 9:20pm 196 2 G 7 55° 85% - - 50° 67.1° 49.6° - - -
4/24 9:10pm 180 3 G 6 55° 85% - - 50° 67.1° 49.6° - - -
4/24 9:00pm 220 1 G 4 55° 85% - - 50° 67.1° 49.6° - - -
4/24 8:50pm 251 2 G 6 55° 85% - - 50° 67.1° 49.6° - - -
4/24 8:40pm 238 2 G 5 55° 85% - - 50° 67.1° 49.6° - - -
4/24 8:30pm 251 2 G 4 55° 85% - - 50° 67.1° 49.6° - - -
4/24 8:20pm 260 2 G 4 55° 85% - - 50° 67.1° 49.6° - - -
4/24 8:10pm 223 1 G 4 55° 83% - - 50° 67.1° 49.6° - - -
4/24 8:00pm 221 1 G 4 55° 82% - - 50° 67.1° 49.6° - - -
4/24 7:50pm 233 1 G 3 56° 81% - - 50° 67.1° 49.6° - - -
4/24 7:40pm 243 1 G 3 56° 80% - - 50° 67.1° 49.6° - - -
4/24 7:30pm 274 2 G 5 56° 79% - - 50° 67.1° 49.6° - - -
4/24 7:20pm 256 2 G 6 57° 77% - - 50° 67.1° 49.6° - - -
4/24 7:10pm 239 1 G 3 58° 75% - - 50° 67.1° 49.6° - - -
4/24 7:00pm 247 2 G 5 58° 74% - - 50° 67.1° 49.6° - - -
4/24 6:50pm 263 2 G 6 58° 74% - - 50° 67.1° 49.6° - - -
4/24 6:40pm 247 2 G 6 58° 73% - - 50° 67.1° 49.6° - - -
4/24 6:30pm 262 2 G 6 59° 71% - - 50° 67.1° 49.6° - - -
4/24 6:20pm 255 3 G 6 58° 72% - - 49° 67.1° 49.6° - - -
4/24 6:10pm 264 3 G 6 59° 71% - - 49° 67.1° 49.6° - - -
4/24 6:00pm 257 3 G 7 59° 69% - - 49° 67.1° 49.6° - - -